Home > Weather > Pirna > Past weeks

Flag for Germany Past Weather in Pirna, Saxony, Germany — Yesterday and Last 2 Weeks

Now
72 °F

Sprinkles. Partly sunny.


Feels Like: 74 °F
Forecast: 64 / 80 °F
Wind: 5 mph from Northeast

Location: Dresden-Klotzsche

Current Time: Jul 23, 2016 at 9:19:14 PM

Latest Report: Jul 23, 2016 at 8:50 PM


Visibility: N/A

Pressure: 30.04 "Hg

Humidity: 73%

Dew Point: 63 °F

Location of PirnaLocation

Past Weather in Pirna — Graph

°F

Pirna Temperature Yesterday

Maximum temperature yesterday: 82 °F (at 4:50 PM)
Minimum temperature yesterday: 61 °F (at 3:50 AM)
Average temperature yesterday: 71 °F

High & Low Weather Summary for the Past Weeks

 TemperatureHumidityPressure
High88 °F (Jul 11, 12:20 PM)100% (Jul 14, 1:20 AM)30.27 "Hg (Jul 14, 1:20 AM)
Low50 °F (Jul 16, 3:50 AM)29% (Jul 16, 5:50 PM)29.80 "Hg (Jul 11, 2:50 AM)
Average67 °F71%30.03 "Hg
* Reported Jul 8 8:20 PM — Jul 23 8:20 PM, Pirna, Weather by CustomWeather, © 2016

Note: Actual official high and low records may vary slightly from our data, if they occured in-between our weather recording intervals... More about our weather records

Advertising

Pirna Weather History for the Previous 24 Hours

Scroll right to see more
 ConditionsComfort  
Time TempWeatherWind HumidityBarometerVisibility
8:20 PM
Sat, Jul 23
72 °FSprinkles. Broken clouds.3 mph78%30.04 "HgN/A
7:50 PM70 °FSprinkles. Partly sunny.5 mph83%30.04 "HgN/A
7:20 PM75 °FSprinkles. Partly sunny.5 mph54%30.04 "HgN/A
6:50 PM77 °FBroken clouds.7 mph51%30.04 "HgN/A
6:20 PM77 °FPassing clouds.7 mph51%30.04 "HgN/A
5:50 PM77 °FSunny.9 mph51%30.04 "Hg10 mi
5:20 PM79 °FBroken clouds.10 mph45%30.04 "HgN/A
4:50 PM81 °FPartly sunny.9 mph45%30.04 "HgN/A
4:20 PM81 °FPartly sunny.9 mph45%30.04 "HgN/A
3:50 PM79 °FSunny.12 mph42%30.04 "Hg10 mi
3:20 PM82 °FPassing clouds.9 mph40%30.04 "HgN/A
2:50 PM81 °FPassing clouds.9 mph45%30.04 "HgN/A
2:20 PM81 °FPassing clouds.9 mph42%30.04 "HgN/A
1:50 PM79 °FPassing clouds.10 mph42%30.07 "HgN/A
1:20 PM79 °FPassing clouds.8 mph42%30.07 "HgN/A
12:50 PM79 °FPassing clouds.8 mph42%30.07 "HgN/A
12:20 PM79 °FSunny.8 mph39%30.07 "Hg10 mi
11:50 AM77 °FPassing clouds.10 mph44%30.07 "HgN/A
11:20 AM77 °FSunny.10 mph44%30.07 "Hg10 mi
10:50 AM75 °FSunny.9 mph44%30.07 "Hg10 mi
10:20 AM75 °FPassing clouds.6 mph61%30.07 "HgN/A
9:50 AM73 °FPassing clouds.3 mph57%30.07 "HgN/A
9:20 AM72 °FPassing clouds.3 mph61%30.07 "HgN/A
8:50 AM70 °FPassing clouds.3 mph57%30.04 "HgN/A
8:20 AM68 °FSunny.2 mph64%30.04 "Hg10 mi
7:50 AM64 °FSunny.2 mph78%30.04 "Hg10 mi
7:20 AM63 °FSunny.2 mph83%30.04 "Hg10 mi
6:50 AM63 °FSunny.3 mph83%30.04 "Hg10 mi
6:20 AM63 °FSunny.1 mph83%30.04 "Hg10 mi
5:50 AM61 °FPassing clouds.3 mph83%30.04 "HgN/A
5:20 AM63 °FClear.No wind73%30.04 "Hg10 mi
4:50 AM63 °FClear.2 mph73%30.04 "Hg10 mi
4:20 AM63 °FClear.3 mph73%30.04 "Hg10 mi
3:50 AM63 °FClear.2 mph73%30.04 "Hg10 mi
3:20 AM64 °FPassing clouds.3 mph68%30.04 "HgN/A
2:50 AM66 °FPassing clouds.3 mph64%30.04 "HgN/A
2:20 AM64 °FClear.1 mph73%30.04 "Hg10 mi
1:50 AM64 °FClear.1 mph78%30.04 "Hg10 mi
1:20 AM66 °FClear.2 mph73%30.04 "Hg10 mi
12:50 AM68 °FClear.2 mph69%30.04 "Hg10 mi
12:20 AM68 °FClear.2 mph69%30.04 "Hg10 mi
11:50 PM
Fri, Jul 22
68 °FClear.3 mph73%30.04 "Hg10 mi
11:20 PM70 °FClear.5 mph69%30.04 "Hg10 mi
10:50 PM68 °FClear.5 mph73%30.04 "Hg10 mi
10:20 PM70 °FClear.5 mph69%30.04 "Hg10 mi
9:50 PM72 °FSunny.5 mph65%30.04 "Hg10 mi
9:20 PM73 °FSunny.5 mph61%30.04 "Hg10 mi
Weather by CustomWeather, © 2016

See weather overviewHow to use our weather pages